SCP
-0 -0 0 0 0 0 0 0 0 0 0 0 0 0 0 0 0 0 0 0 0 0 0 0 0 0 0 0 0 0 0 0 0 0 0 0 0 0
-0 -0 0 0 0 0 0 0 0 0 0 0 0 0 0 0 0 0 0 0 0 0 0 0 0 0 0 0 0 0 0 0 0 0 0 0 0 0
-0 -0 0 0 0 0 0 0 0 0 0 0 0 0 0 0 0 0 0 0 0 0 0 0 0 0 0 0 0 0 0 0 0 0 0 0 0 0
0 0 0 -0 -0 0 0 0 0 0 0 0 0 0 0 0 0 0 0 0 0 0 0 0 0 0 0 0 0 0 0 0 0 0 0 0 0 0
0 0 0 0 -0 0 0 0 0 0 0 0 0 0 0 0 0 0 0 0 0 0 0 0 0 0 0 0 0 0 0 0 0 0 0 0 0 0
0 0 0 0 0 0 0 0 0 0 0 0 0 0 0 0 0 0 0 0 0 0 0 0 0 0 0 0 0 0 0 0 0 0 0 0 0 0
0 0 0 0 0 0 0 0 0 0 0 0 0 0 0 0 0 0 0 0 0 0 0 0 0 0 0 0 0 0 0 0 0 0 0 0 0 0
0 0 0 0 0 0 0 0 0 0 0 0 0 0 0 0 0 0 0 0 0 0 0 0 0 0 0 0 0 0 0 0 0 0 0 0 0 0
0 0 0 0 0 0 0 0 0 0 0 0 0 0 0 0 0 0 0 0 0 0 0 0 0 0 0 0 0 0 0 0 0 0 0 0 0 0
0 0 0 0 0 0 0 0 0 0 0 0 0 0 0 0 0 0 0 0 0 0 0 0 0 0 0 0 0 0 0 0 0 0 0 0 0 0
0 0 0 0 0 0 0 0 0 0 0 0 0 0 0 0 0 0 0 0 0 0 0 0 0 0 0 0 0 0 0 0 0 0 0 0 0 0
0 0 0 0 0 0 0 0 0 0 0 0 0 0 0 0 0 0 0 0 0 0 0 0 0 0 0 0 0 0 0 0 0 0 0 0 0 0
0 0 0 0 0 0 0 0 0 0 0 0 0 0 0 0 0 0 0 0 0 0 0 0 0 0 0 0 0 0 0 0 0 0 0 0 0 0
0 0 0 0 0 0 0 0 0 0 0 0 0 0 0 0 0 0 0 0 0 0 0 0 0 0 0 0 0 0 0 0 0 0 0 0 0 0
0 0 0 0 0 0 0 0 0 0 0 0 0 0 0 0 0 0 0 0 0 0 0 0 0 0 0 0 0 0 0 0 0 0 0 0 0 0
0 0 0 0 0 0 0 0 0 0 0 0 0 0 0 0 0 0 0 0 0 0 0 0 0 0 0 0 0 0 0 0 0 0 0 0 0 0
0 0 0 0 0 0 0 0 0 0 0 0 0 0 0 0 0 0 0 0 0 0 0 0 0 0 0 0 0 0 0 0 0 0 0 0 0 0
0 0 0 0 0 0 0 0 0 0 0 0 0 0 0 0 0 0 0 0 0 0 0 0 0 0 0 0 0 0 0 0 0 0 0 0 0 0
0 0 0 0 -0 0 0 0 0 0 0 0 0 0 0 0 0 0 0 0 0 0 0 0 0 0 0 0 0 0 0 0 0 0 0 0 0 0
0 0 0 0 0 0 0 0 0 0 0 0 0 0 0 0 0 0 0 0 0 0 0 0 0 0 0 0 0 0 0 0 0 0 0 0 0 0
0 0 0 0 0 0 0 0 0 0 0 0 0 0 0 0 0 0 0 0 0 0 0 0 0 0 0 0 0 0 0 0 0 0 0 0 0 0
0 0 0 0 0 0 0 0 0 0 0 0 0 0 0 0 0 0 0 0 0 0 0 0 0 0 0 0 0 0 0 0 0 0 0 0 0 0
0 0 0 0 0 0 0 0 0 0 0 0 0 0 0 0 0 0 0 0 0 0 0 0 0 0 0 0 0 0 0 0 0 0 0 0 0 0
Wind_Speed
2 2 1 1 1 0 0 0 1 0 1 0 1 1 1 2 3 3 4 7 7 7 7 7 6 6 6 6 6 7 7 8 8 8 8 8 7 7
1 2 1 1 1 0 1 1 1 1 1 1 0 1 1 2 3 2 4 8 8 8 8 8 7 7 6 6 6 6 6 7 8 8 8 7 7 7
2 1 1 1 1 1 1 1 1 1 1 1 0 1 1 1 1 1 3 4 5 9 9 8 8 8 7 7 7 7 6 7 7 7 7 7 7 7
2 2 2 1 1 1 1 1 1 1 1 1 1 0 1 2 2 2 2 3 3 8 9 9 9 8 8 7 7 6 7 7 7 7 7 7 7 7
2 2 2 2 2 2 1 1 1 1 1 2 1 1 1 1 1 1 2 1 3 6 8 9 9 9 8 8 7 7 7 7 7 7 6 6 7 7
3 2 2 2 2 2 2 2 2 2 1 1 2 1 1 1 1 1 1 1 2 3 4 5 7 9 9 8 8 7 7 7 8 7 6 6 5 6
3 3 3 3 3 2 1 1 1 1 1 2 2 2 2 1 2 1 1 1 1 2 2 3 3 3 5 7 8 8 8 8 8 8 7 6 5 5
4 3 3 4 5 6 5 4 3 2 2 2 2 2 3 3 2 2 2 1 1 1 2 2 3 3 4 4 7 9 9 9 8 8 7 7 6 5
4 4 4 3 4 4 6 7 7 8 6 3 3 3 3 3 3 2 2 3 3 3 3 2 2 2 3 4 8 9 9 9 8 8 7 6 6 5
4 4 4 3 3 3 3 4 5 6 7 6 4 4 3 2 3 3 3 2 1 1 3 2 2 2 2 3 7 8 8 8 8 8 7 7 6 5
5 4 4 3 3 3 3 4 4 5 7 7 7 6 5 5 4 2 2 2 1 2 2 3 2 1 1 2 4 8 8 8 8 8 7 6 6 4
4 4 5 4 4 4 4 4 5 4 4 4 5 6 6 6 7 5 4 4 3 2 3 3 3 2 1 1 2 3 3 5 6 6 6 5 5 3
4 3 3 6 6 6 6 5 6 5 4 4 4 4 4 4 4 5 4 4 4 3 3 4 3 3 3 2 1 2 3 3 3 3 4 4 3 3
5 3 3 6 7 8 7 7 9 6 3 3 3 4 4 4 4 4 4 4 4 4 4 4 3 4 4 3 2 1 2 2 3 3 2 3 2 2
5 6 7 9 8 7 9 10 7 4 4 4 4 4 4 4 4 3 3 3 2 2 3 3 3 3 3 3 3 2 2 1 2 3 3 2 2 2
6 7 9 9 8 7 7 7 6 5 5 5 4 4 3 3 3 3 3 3 2 1 1 3 3 4 3 3 3 3 2 3 2 2 3 2 1 1
5 5 5 4 5 5 5 5 5 5 6 5 4 3 3 4 3 3 3 3 4 4 3 2 3 4 4 3 3 3 3 2 3 3 2 2 1 1
7 6 6 6 6 6 6 6 5 5 5 5 5 4 4 5 4 3 3 4 4 4 4 4 4 3 2 2 1 3 3 3 2 3 3 2 1 1
6 6 7 7 6 6 6 6 6 6 5 5 6 5 5 4 5 4 4 4 4 4 4 5 4 5 4 3 1 1 3 3 3 2 2 2 2 2
6 6 7 7 6 6 6 6 6 5 5 5 5 5 5 5 5 5 5 5 5 4 4 4 5 5 6 5 4 1 1 2 3 3 2 1 2 2
6 6 6 6 6 6 6 6 6 6 6 5 5 6 6 5 5 5 6 7 6 5 6 5 5 6 4 4 3 2 1 2 3 3 3 2 1 2
6 7 6 6 6 5 5 5 5 6 6 6 6 6 6 6 7 7 7 7 6 5 5 4 5 5 4 5 4 4 3 2 3 5 4 3 4 4
7 6 6 6 6 5 5 5 6 6 6 6 6 6 6 6 6 6 6 7 6 6 6 5 4 3 3 4 5 4 5 4 3 2 1 1 3 4
Wind_Direction
317 318 307 286 294 328 344 153 155 319 304 231 134 162 153 136 156 172 163 174 172 170 172 174 174 173 172 177 185 193 196 197 195 193 196 198 199 202
288 300 310 297 298 257 245 266 209 180 227 277 193 171 172 156 167 180 171 173 180 178 176 176 178 179 179 182 187 193 197 199 201 201 199 200 202 203
282 260 252 260 283 280 247 251 260 166 195 271 296 157 150 153 155 203 173 176 184 187 184 182 182 185 187 191 194 197 200 200 201 199 199 201 204 205
267 266 255 238 245 263 259 246 249 227 189 219 256 243 190 181 179 211 201 179 175 186 187 187 187 188 188 188 191 194 195 193 195 196 196 199 202 203
242 246 249 233 238 229 222 233 248 250 213 200 234 232 242 212 186 222 221 198 189 179 182 187 188 187 186 185 185 189 188 186 185 186 187 191 194 198
237 226 229 219 234 242 230 232 231 238 240 213 213 218 224 230 186 207 228 218 208 174 169 176 186 189 188 185 184 185 183 182 180 180 181 183 187 193
260 231 218 205 204 216 227 245 253 241 237 216 215 213 214 194 201 203 200 224 223 173 154 168 170 180 187 191 188 185 181 179 179 178 178 180 185 192
285 262 226 212 209 218 224 219 211 221 234 227 227 217 214 199 193 191 184 173 235 206 154 187 171 182 184 180 183 184 182 180 181 182 182 183 190 200
281 279 274 235 206 212 225 231 234 233 226 216 227 234 218 203 186 195 196 190 206 200 152 194 185 180 174 163 168 174 178 179 179 183 186 191 197 204
268 267 269 256 232 223 220 222 229 230 228 224 227 233 223 201 188 192 198 206 238 211 153 172 185 170 143 141 165 169 174 178 183 186 190 193 196 204
269 270 271 262 252 242 240 243 242 237 224 220 214 218 213 212 190 159 186 178 213 223 180 159 168 148 136 151 172 176 175 179 183 187 187 187 190 198
267 257 257 257 275 249 238 242 245 245 226 216 220 225 221 218 206 193 192 188 190 206 195 158 162 138 136 154 150 166 171 179 181 182 181 182 182 183
275 261 248 239 249 259 260 247 240 248 240 221 208 210 207 204 204 205 197 189 189 204 190 158 161 157 150 157 163 170 162 159 162 169 175 171 171 175
277 271 262 254 252 254 254 255 255 252 241 228 213 207 207 206 202 197 197 191 185 186 181 160 160 164 151 150 176 163 153 158 151 154 155 152 153 155
276 279 278 277 270 256 248 252 253 241 226 222 218 215 206 197 185 177 178 167 152 153 163 160 151 151 149 160 167 162 158 174 156 150 150 153 165 160
268 275 276 270 258 256 252 245 234 226 219 220 217 212 195 181 182 178 177 166 151 164 109 118 129 140 148 155 156 168 168 172 163 148 140 142 146 151
279 273 263 259 247 242 238 230 223 223 227 222 215 208 195 189 191 181 173 167 172 180 169 128 102 102 109 134 158 172 164 156 156 145 131 137 149 159
277 265 256 250 246 242 237 230 221 219 224 221 217 209 200 193 187 182 173 172 175 177 171 161 143 117 87 41 57 166 156 151 148 140 131 149 177 140
261 255 252 250 246 243 240 231 224 218 215 221 219 212 201 193 183 182 182 178 179 174 175 165 160 155 168 192 252 24 147 149 145 149 166 165 172 169
249 252 254 252 248 243 242 237 227 217 213 216 218 210 199 192 188 188 186 184 180 170 173 174 175 175 180 177 168 183 30 145 154 161 160 114 104 110
259 258 256 254 253 248 243 238 232 222 213 207 213 213 202 192 193 191 187 185 180 173 181 189 184 162 133 116 122 137 74 41 120 153 150 135 152 181
263 260 258 257 256 252 247 239 237 232 219 212 210 212 206 196 193 190 186 184 186 181 176 170 157 149 147 162 167 158 151 125 70 77 77 140 165 181
262 262 261 258 256 252 240 238 243 241 229 217 211 208 203 199 192 188 185 180 175 169 158 157 160 159 166 165 160 154 155 159 153 122 10 304 177 175